GW2112 Weather Reports


Display with metric or nautical units.
time (UTC)temp
F
wind
direction
speed
MPH
gust
MPH
rain 1hr
in
rain 24hr
in
rain mn
in
humidity
%
barometer
mb
20260504081530 48 29 14.0 23.0 0.00 0.00 0.00 58 1014.8
20260504044535 57 42 18.0 25.0 0.00 0.00 0.00 41 1009.9
20260504043035 57 49 10.0 15.0 0.00 0.00 0.00 41 1009.4
20260504041534 57 42 10.0 13.0 0.00 0.00 0.00 41 1009.0
20260504040037 57 44 9.0 15.0 0.00 0.00 0.00 39 1008.6
20260504034541 58 38 11.0 15.0 0.00 0.00 0.00 38 1008.1
20260504033038 59 38 12.0 19.0 0.00 0.00 0.00 38 1007.9
20260504031538 60 42 14.0 21.0 0.00 0.00 0.00 37 1007.7
20260504030036 61 53 15.0 21.0 0.00 0.00 0.00 36 1007.4
20260504024531 62 54 14.0 19.0 0.00 0.00 0.00 33 1007.1
20260504023033 64 48 11.0 17.0 0.00 0.00 0.00 30 1007.0
20260504021532 65 39 1.0 5.0 0.00 0.00 0.00 25 1006.9
20260504020032 68 345 2.0 10.0 0.00 0.00 0.00 23 1007.0
20260504014530 69 342 4.0 15.0 0.00 0.00 0.00 23 1007.1
20260504013035 71 325 8.0 14.0 0.00 0.00 0.00 22 1007.0
20260504011534 72 348 9.0 15.0 0.00 0.00 0.00 21 1007.0
20260504010030 73 329 10.0 15.0 0.00 0.00 0.00 21 1007.0
20260504004534 73 333 11.0 18.0 0.00 0.00 0.00 21 1007.2
20260504003039 74 324 9.0 20.0 0.00 0.00 0.00 21 1007.3
20260504001533 74 324 9.0 20.0 0.00 0.00 0.00 20 1007.5
20260504000053 75 334 9.0 17.0 0.00 0.00 0.00 20 1007.6
20260503234533 75 328 10.0 15.0 0.00 0.00 0.00 21 1007.6
20260503233033 74 301 6.0 19.0 0.00 0.00 0.00 20 1007.7
20260503231536 75 338 9.0 18.0 0.00 0.00 0.00 19 1007.9
20260503230032 75 310 10.0 18.0 0.00 0.00 0.00 20 1007.9
20260503224533 75 329 8.0 15.0 0.00 0.00 0.00 20 1007.9
20260503223037 75 289 11.0 19.0 0.00 0.00 0.00 20 1008.2
20260503221547 74 333 9.0 19.0 0.00 0.00 0.00 20 1008.3
20260503220037 74 323 12.0 20.0 0.00 0.00 0.00 20 1008.4
20260503214539 75 314 9.0 18.0 0.00 0.00 0.00 20 1008.7
20260503213035 74 298 11.0 17.0 0.00 0.00 0.00 21 1008.9
20260503211536 74 315 11.0 22.0 0.00 0.00 0.00 21 1009.3
20260503210033 74 322 8.0 16.0 0.00 0.00 0.00 20 1009.5
20260503204535 73 281 10.0 18.0 0.00 0.00 0.00 21 1009.6
20260503203049 73 284 11.0 18.0 0.00 0.00 0.00 21 1009.8
20260503201535 73 304 11.0 20.0 0.00 0.00 0.00 22 1010.0
20260503200033 72 311 7.0 18.0 0.00 0.00 0.00 20 1010.1
20260503194538 72 309 6.0 18.0 0.00 0.00 0.00 22 1010.3
20260503193036 71 297 7.0 17.0 0.00 0.00 0.00 21 1010.7
20260503191535 71 291 8.0 14.0 0.00 0.00 0.00 21 1010.9
20260503190039 71 288 4.0 20.0 0.00 0.00 0.00 21 1011.0
20260503184534 71 288 6.0 16.0 0.00 0.00 0.00 22 1011.0
20260503183037 71 313 6.0 14.0 0.00 0.00 0.00 23 1011.2
20260503181536 71 278 9.0 14.0 0.00 0.00 0.00 23 1011.5
20260503180035 70 304 4.0 16.0 0.00 0.00 0.00 25 1011.8
20260503174535 70 331 8.0 15.0 0.00 0.00 0.00 26 1011.8
20260503173050 69 225 3.0 11.0 0.00 0.00 0.00 29 1011.9
20260503171539 69 296 4.0 15.0 0.00 0.00 0.00 29 1012.0